Regional Weather Roundup
Issued by NWS

Home | Current Version | Previous Version | Text Only | Print | Product List | Glossary Off
Versions: 1 2 3 4 5 6 7 8 9 10 11 12 13 14 15 16 17 18 19 20 21 22 23 24 25 26 27 28 29 30 31 32 33 34 35 36 37 38 39 40 41 42 43 44 45 46 47 48 49 50

000
ASUS43 KLSX 180407
RWRMO

WEATHER SUMMARY FOR MISSOURI
NATIONAL WEATHER SERVICE SPRINGFIELD MO
1100 PM CDT THU APR 17 2014

NOTE: "FAIR" INDICATES FEW OR NO CLOUDS BELOW 12,000 FEET WITH NO
       SIGNIFICANT WEATHER AND/OR OBSTRUCTIONS TO VISIBILITY.
       CURRENT SKY AND/OR WEATHER CONDITIONS ARE NOT AVAILABLE FOR
       CHILLICOTHE AND FARMINGTON.

MOZ001>031-035>038-043-044-053-054-180500-
...NORTHERN AND WESTERN MISSOURI...

CITY           SKY/WX    TMP DP  RH WIND       PRES   REMARKS
KANSAS CTY INT CLEAR     40  31  70 S5        30.28S
KANSAS C DTWN  CLEAR     46  34  62 CALM      30.28F
LEE`S SUMMIT   CLOUDY    43  34  70 CALM      30.28F
ST JOSEPH      CLEAR     43  33  68 CALM      30.28F
CHILLICOTHE      N/A     38  33  82 CALM      30.29F
KIRKSVILLE     CLEAR     36  32  85 W5        30.29S

$$
MOZ066>068-077>081-088>096-101>105-180500-
...SOUTHWEST MISSOURI...

CITY           SKY/WX    TMP DP  RH WIND       PRES   REMARKS
SPRINGFIELD    CLOUDY    51  40  65 NE9       30.24S
JOPLIN         CLOUDY    46  42  86 N8        30.27R

$$
MOZ032>034-039>042-045>050-055>058-069>072-180500-
...CENTRAL MISSOURI...

CITY           SKY/WX    TMP DP  RH WIND       PRES   REMARKS
COLUMBIA       CLOUDY    47  40  76 CALM      30.28S
JEFFERSON CITY CLOUDY    49  39  68 CALM      30.28F
ROLLA          CLOUDY    47  40  76 N6        30.25S
SEDALIA        MOCLDY    43  39  86 NW3       30.29R
WHITEMAN AFB   CLEAR     39  35  83 CALM      30.28S
OSAGE BEACH    MOCLDY    45  36  70 NE5       30.29S

$$
MOZ051-052-059>065-180500-
...EAST CENTRAL MISSOURI...

CITY           SKY/WX    TMP DP  RH WIND       PRES   REMARKS
ST LOUIS INTL  CLOUDY    53  40  61 N5        30.27S
SPIRIT OF STL  CLOUDY    52  39  61 N5        30.27S
ST CHARLES     CLOUDY    52  39  61 N3        30.27R

$$
MOZ072>076-082>087-097>100-106>115-180500-
...SOUTH CENTRAL AND SOUTHEAST MISSOURI...

CITY           SKY/WX    TMP DP  RH WIND       PRES   REMARKS
CAPE GIRARDEAU MOCLDY    51  45  79 NE3       30.24F
FARMINGTON     PTCLDY    54  37  54 S3        30.26F
POPLAR BLUFF   CLEAR     53  45  74 CALM      30.22F
WEST PLAINS    CLOUDY    54  37  52 N6        30.24S

$$



USA.gov is the U.S. government's official web portal to all federal, state and local government web resources and services.